Location: Calvera
(42.3882°N, 0.6137°E)
Time: 19:55:44
(UTC+00:00)

ERS-2 - Pass Details

Date: 28 October 2020
Orbit: 493 x 498 km, 98.6° (Epoch: 23 November)

Event Time Altitude Azimuth Distance (km) Brightness Sun altitude
Rises 04:32:35 0° 167° (SSE) 2,565 5.9 -21.5°
Reaches altitude 10° 04:34:38 10° 169° (S) 1,687 4.9 -21.2°
Maximum altitude 04:38:16 80° 256° (WSW) 508 1.9 -20.5°
Enters shadow 04:39:08 50° 334° (NNW) 636 2.4 -20.3°
